Miscellaneous Local Product
Issued by NWS Hastings, NE

Home | Current Version | Previous Version | Graphics & Text | Print | Product List | Glossary On
Versions: 1 2 3 4 5 6 7 8 9 10 11 12 13 14 15 16 17 18 19 20 21 22 23 24 25 26 27 28 29 30 31 32 33 34 35 36 37 38 39 40 41 42 43 44 45 46 47 48 49 50
000
AXUS43 KGID 270702
MISGRI

GID CWA HOURLY WEATHER ROUNDUP
NATIONAL WEATHER SERVICE HASTINGS NE
200 AM CDT TUE JUN 27 2017

NOTE: "FAIR" INDICATES FEW OR NO CLOUDS BELOW 12,000 FEET WITH NO
SIGNIFICANT WEATHER AND/OR OBSTRUCTIONS TO VISIBILITY.

...SOUTH CENTRAL NEBRASKA...

CITY           SKY/WX    TMP DP  RH WIND       PRES   REMARKS
GRAND ISLAND   PTCLDY    57  56  96 SE6       30.14S
HASTINGS       CLEAR     60  58  92 SE8       30.15S
KEARNEY        CLEAR     57  54  88 SE7       30.14F
ORD            CLEAR     50  44  80 S3        30.12F
YORK           CLEAR     57  54  88 SE5       30.14F
AURORA         MOCLDY    57  56  98 SE6       30.13F FOG
LEXINGTON      CLEAR     60  56  88 SE7       30.13F
HOLDREGE       PTCLDY    59  57  92 SE8       30.13F
HEBRON         PTCLDY    59  59  98 CALM      30.14F FOG

...NEBRASKA PANHANDLE...

CITY           SKY/WX    TMP DP  RH WIND       PRES   REMARKS
CHADRON        CLEAR     66  44  45 S32G38    29.95F
ALLIANCE       CLEAR     60  46  59 S16G22    30.06F
SCOTTSBLUFF    CLEAR     62  49  62 SE13      30.05F
SIDNEY         CLEAR     60  54  80 S16G23    30.11F

...WESTERN AND NORTH CENTRAL NEBRASKA...

CITY           SKY/WX    TMP DP  RH WIND       PRES   REMARKS
VALENTINE      CLEAR     59  40  49 SE10      30.07F
AINSWORTH      CLEAR     56  44  62 S12       30.10S
ONEILL         CLEAR     53  44  73 SE6       30.12F
BROKEN BOW     CLEAR     53  47  79 SE6       30.12F
IMPERIAL       CLEAR     59  54  83 SE8       30.11F
NORTH PLATTE   CLEAR     55  52  89 E8        30.11F
MCCOOK         CLEAR     61  58  90 E10       30.11F

...EASTERN NEBRASKA...

CITY           SKY/WX    TMP DP  RH WIND       PRES   REMARKS
NORFOLK        CLEAR     50  44  80 SE7       30.13F
SO SIOUX CITY  CLEAR     50  46  86 E5        30.14F
TEKAMAH        CLEAR     50  44  80 CALM      30.14F
COLUMBUS       CLEAR     52  46  80 E5        30.14F
ALBION         CLEAR     51  44  78 CALM      30.13F
OMAHA EPPLEY   CLEAR     57  51  80 CALM      30.14F
OFFUTT AFB     CLEAR     53  50  91 E3        30.13F
MILLARD        CLEAR     58  54  86 CALM      30.14F
LINCOLN        PTCLDY    60  53  77 CALM      30.15S
NEBRASKA CITY  PTCLDY    60  60 100 CALM      30.15S
BEATRICE         N/A     56  56  99 CALM      30.14F FOG
FALLS CITY     FOG       56  56 100 CALM      30.14S VSB 1/2

...NORTHERN KANSAS...

CITY           SKY/WX    TMP DP  RH WIND       PRES   REMARKS
GOODLAND       CLOUDY    61  58  90 SE14      30.10F
HILL CITY      PTCLDY    63  61  93 E8        30.11F
NORTON         MOSUNNY   61  55  82 E8        30.10
PHILLIPSBURG   MOCLDY    64  63  94 E8        30.12F
SMITH CENTER   MOCLDY    61  57  88 E9        30.13F
HAYS           CLEAR     63  61  93 E10       30.09F
RUSSELL        PTCLDY    63  60  90 E13       30.08F
CONCORDIA      PTCLDY    59  59 100 E5        30.13F FOG
SALINA         MOCLDY    67  60  78 E7        30.10F
TOPEKA         CLEAR     59  59 100 E3        30.14S



USA.gov is the U.S. government's official web portal to all federal, state and local government web resources and services.